Weather History for South Bend, IN

Change the Weather History Date:

Thursday, November 22, 2012

  Actual Average Record
Temperature  
Mean Temperature 52 °F 38 °F  
Max Temperature 61 °F 45 °F 68 °F (1913)
Min Temperature 42 °F 31 °F 3 °F (1929)
Degree Days  
Heating Degree Days 13 27  
Month to date heating degree days 506 494  
Since 1 July heating degree days 1089 1035  
Cooling Degree Days 0 0  
Month to date cooling degree days 0 0  
Year to date cooling degree days 1115 773  
Growing Degree Days 2 (Base 50)    
Moisture  
Dew Point 42 °F    
Average Humidity 70    
Maximum Humidity 89    
Minimum Humidity 51    
Precipitation  
Precipitation T in 0.11 in 1.34 in (1909)
Month to date precipitation 0.26 2.40  
Year to date precipitation 31.26 34.52  
Snow  
Snow 0.00 in 0.20 in 2.90 in (1956)
Month to date snowfall T 2.7  
Snow Depth 0.00 in    
Sea Level Pressure  
Sea Level Pressure 30.01 in    
Wind  
Wind Speed 13 mph (SSW)    
Max Wind Speed 23 mph    
Max Gust Speed 32 mph    
Visibility 7 miles    
Events Rain    
T = Trace of Precipitation, MM = Missing Value Source: NWS Daily Summary

Daily Weather History Graph

Daily Weather History Graph

Search for Another Location

Airport:

Trip Planner

Search our weather history database for the weather conditions in past years. The results will help you decide how hot, cold, wet, or windy it might be!

Date:

Astronomy

Nov. 22, 2012 Rise Set
Actual Time 7:43 AM EST 5:19 PM EST
Civil Twilight 7:12 AM EST 5:49 PM EST
Nautical Twilight 6:38 AM EST 6:23 PM EST
Astronomical Twilight 6:05 AM EST 6:57 PM EST
Moon 2:08 PM EST (11/22) 1:58 AM EST (11/22)
Length of Visible Light 10h 36m
Length of Day
9h 36m
Waxing Gibbous, 71% of the Moon is Illuminated
Nov 22
Waxing Gibbous
Nov 28
Full
Dec 6
Last Quarter
Dec 13
New
Dec 20
First Quarter

Hourly Weather History & Observations

Time (EST) Temp. Windchill Dew Point Humidity Pressure Visibility Wind Dir Wind Speed Gust Speed Precip Events Conditions
12:54 AM 45.0 °F 40.6 °F 41.0 °F 86% 30.15 in 4.0 mi South 8.1 mph - N/A   Clear
1:54 AM 45.0 °F 41.2 °F 41.0 °F 86% 30.14 in 3.0 mi South 6.9 mph - N/A   Clear
2:54 AM 44.1 °F 40.8 °F 39.9 °F 85% 30.14 in 3.0 mi South 5.8 mph - N/A   Clear
3:54 AM 43.0 °F 38.2 °F 39.9 °F 89% 30.14 in 3.0 mi South 8.1 mph - N/A   Clear
4:54 AM 44.1 °F 39.0 °F 41.0 °F 89% 30.12 in 3.0 mi SSW 9.2 mph - N/A   Clear
5:54 AM 43.0 °F 39.5 °F 39.9 °F 89% 30.12 in 3.0 mi SSW 5.8 mph - N/A   Clear
6:54 AM 43.0 °F 38.2 °F 39.9 °F 89% 30.11 in 3.0 mi SSW 8.1 mph - N/A   Clear
7:50 AM 44.6 °F 39.7 °F 41.0 °F 87% 30.09 in 2.5 mi South 9.2 mph - N/A   Clear
7:54 AM 44.1 °F 39.0 °F 41.0 °F 89% 30.10 in 3.0 mi South 9.2 mph - N/A   Clear
8:54 AM 46.9 °F - 43.0 °F 86% 30.09 in 4.0 mi SSW 12.7 mph - N/A   Clear
9:54 AM 50.0 °F - 44.1 °F 80% 30.08 in 5.0 mi SSW 15.0 mph 23.0 mph N/A   Haze
10:54 AM 54.0 °F - 45.0 °F 72% 30.07 in 6.0 mi SSW 12.7 mph 21.9 mph N/A   Haze
11:54 AM 57.0 °F - 45.0 °F 64% 30.04 in 8.0 mi SSW 17.3 mph 23.0 mph N/A   Clear
12:54 PM 59.0 °F - 43.0 °F 55% 30.01 in 10.0 mi South 20.7 mph 27.6 mph N/A   Clear
1:54 PM 59.0 °F - 42.1 °F 53% 29.97 in 10.0 mi South 16.1 mph - N/A   Clear
2:54 PM 60.1 °F - 42.1 °F 51% 29.94 in 10.0 mi South 18.4 mph 25.3 mph N/A   Clear
3:54 PM 59.0 °F - 42.1 °F 53% 29.92 in 10.0 mi South 16.1 mph 23.0 mph N/A   Scattered Clouds
4:54 PM 59.0 °F - 41.0 °F 51% 29.90 in 10.0 mi South 12.7 mph 23.0 mph N/A   Partly Cloudy
5:54 PM 59.0 °F - 39.9 °F 49% 29.90 in 10.0 mi South 13.8 mph - 0.00 in Rain Light Rain
6:54 PM 57.9 °F - 41.0 °F 53% 29.91 in 10.0 mi SSW 13.8 mph - 0.00 in   Mostly Cloudy
7:54 PM 57.0 °F - 41.0 °F 55% 29.89 in 10.0 mi SSW 11.5 mph 19.6 mph N/A   Partly Cloudy
8:54 PM 55.9 °F - 41.0 °F 57% 29.87 in 10.0 mi SSW 15.0 mph - N/A   Scattered Clouds
9:54 PM 55.9 °F - 44.1 °F 64% 29.86 in 10.0 mi SSW 23.0 mph 32.2 mph 0.00 in Rain Light Rain
10:54 PM 54.0 °F - 46.0 °F 75% 29.83 in 10.0 mi SSW 16.1 mph 23.0 mph 0.00 in   Overcast
11:54 PM 54.0 °F - 46.9 °F 77% 29.82 in 10.0 mi SW 17.3 mph - 0.00 in Rain Light Rain